Location: Saint-Hippolyte
(43.6394°N, 4.7559°E)
Time: 15:02:30
(UTC+00:00)

SL-4 R/B - Pass Details

Date: 24 October 2020
Orbit: 427 x 665 km, 51.6° (Epoch: 23 November)

Event Time Altitude Azimuth Distance (km) Brightness Sun altitude
Rises 18:00:38 0° 284° (WNW) 2,433 6.9 -14.7°
Reaches altitude 10° 18:03:00 10° 299° (WNW) 1,590 5.3 -15.1°
Maximum altitude 18:05:57 24° 355° (N) 1,022 3.4 -15.7°
Enters shadow 18:07:36 18° 33° (NNE) 1,251 3.5 -16.0°
